TimeAKST,TemperatureF,Dew PointF,Humidity,Sea Level PressureIn,VisibilityMPH,Wind Direction,Wind SpeedMPH,Gust SpeedMPH,PrecipitationIn,Events,Conditions,WindDirDegrees,DateUTC
12:16 AM,-2.2,-11.2,66,29.71,10.0,Calm,Calm,-,N/A,,Clear,0,2013-01-08 09:16:00
12:36 AM,-5.8,-9.4,84,29.72,10.0,Calm,Calm,-,N/A,,Clear,0,2013-01-08 09:36:00
12:56 AM,-4.0,-9.4,78,29.72,9.0,Calm,Calm,-,N/A,,Clear,0,2013-01-08 09:56:00
1:16 AM,-4.0,-11.2,71,29.73,10.0,North,3.5,-,N/A,,Clear,360,2013-01-08 10:16:00
1:36 AM,-5.8,-9999,N/A,29.74,10.0,North,5.8,-,N/A,,Clear,10,2013-01-08 10:36:00
1:56 AM,-5.8,-14.8,65,29.74,10.0,NNE,4.6,-,N/A,,Clear,20,2013-01-08 10:56:00
2:16 AM,-5.8,-11.2,77,29.75,10.0,North,5.8,-,N/A,,Clear,350,2013-01-08 11:16:00
2:36 AM,-7.6,-14.8,71,29.75,10.0,NNW,4.6,-,N/A,,Clear,340,2013-01-08 11:36:00
2:56 AM,-5.8,-11.2,77,29.76,10.0,NNW,5.8,-,N/A,,Clear,330,2013-01-08 11:56:00
3:16 AM,-5.8,-11.2,77,29.77,10.0,NW,4.6,-,N/A,,Clear,320,2013-01-08 12:16:00
3:36 AM,-7.6,-14.8,71,29.77,10.0,NW,5.8,-,N/A,,Clear,320,2013-01-08 12:36:00
3:56 AM,-5.8,-11.2,77,29.78,10.0,NNW,4.6,-,N/A,,Clear,330,2013-01-08 12:56:00
4:16 AM,-5.8,-13.0,71,29.78,10.0,NNE,5.8,-,N/A,,Clear,20,2013-01-08 13:16:00
4:36 AM,-5.8,-13.0,71,29.79,10.0,NNE,3.5,-,N/A,,Clear,20,2013-01-08 13:36:00
4:56 AM,-7.6,-11.2,84,29.80,10.0,NW,5.8,-,N/A,,Clear,320,2013-01-08 13:56:00
5:16 AM,-5.8,-16.6,60,29.80,10.0,NNE,5.8,-,N/A,,Clear,30,2013-01-08 14:16:00
5:36 AM,-7.6,-14.8,71,29.81,10.0,NE,3.5,-,N/A,,Clear,40,2013-01-08 14:36:00
5:56 AM,-5.8,-13.0,71,29.81,10.0,NNE,3.5,-,N/A,,Clear,30,2013-01-08 14:56:00
6:16 AM,-7.6,-14.8,71,29.82,10.0,Calm,Calm,-,N/A,,Clear,0,2013-01-08 15:16:00
6:36 AM,-11.2,-16.6,77,29.82,10.0,Calm,Calm,-,N/A,,Clear,0,2013-01-08 15:36:00
6:56 AM,-9.4,-11.2,92,29.82,10.0,North,4.6,-,N/A,,Clear,10,2013-01-08 15:56:00
7:16 AM,-9.4,-16.6,71,29.83,10.0,Calm,Calm,-,N/A,,Clear,0,2013-01-08 16:16:00
7:36 AM,-11.2,-20.2,64,29.84,10.0,Calm,Calm,-,N/A,,Clear,0,2013-01-08 16:36:00
7:56 AM,-11.2,-11.2,100,29.84,10.0,Calm,Calm,-,N/A,,Clear,0,2013-01-08 16:56:00
8:16 AM,-9.4,-13.0,84,29.85,10.0,Calm,Calm,-,N/A,,Clear,0,2013-01-08 17:16:00
8:36 AM,-11.2,-14.8,84,29.86,10.0,Calm,Calm,-,N/A,,Clear,0,2013-01-08 17:36:00
8:56 AM,-11.2,-16.6,77,29.86,10.0,Calm,Calm,-,N/A,,Clear,0,2013-01-08 17:56:00
9:16 AM,-9.4,-11.2,92,29.87,10.0,NE,3.5,-,N/A,,Clear,40,2013-01-08 18:16:00
9:56 AM,-14.8,-20.2,77,29.88,10.0,ENE,3.5,-,N/A,,Clear,70,2013-01-08 18:56:00
10:16 AM,-11.2,-16.6,77,29.89,10.0,ENE,3.5,-,N/A,,Clear,70,2013-01-08 19:16:00
10:36 AM,-9999,-9999,N/A,29.89,10.0,Calm,Calm,-,N/A,,Clear,0,2013-01-08 19:36:00
10:56 AM,-14.8,-16.6,92,29.90,10.0,Calm,Calm,-,N/A,,Partly Cloudy,0,2013-01-08 19:56:00
11:16 AM,-11.2,-20.2,64,29.91,10.0,Calm,Calm,-,N/A,,Partly Cloudy,0,2013-01-08 20:16:00
11:36 AM,-11.2,-18.4,70,29.92,10.0,Calm,Calm,-,N/A,,Mostly Cloudy,0,2013-01-08 20:36:00
12:16 PM,-11.2,-20.2,64,29.93,3.0,Calm,Calm,-,N/A,,Mostly Cloudy,0,2013-01-08 21:16:00
12:36 PM,-9.4,-16.6,71,29.93,10.0,Calm,Calm,-,N/A,,Mostly Cloudy,0,2013-01-08 21:36:00
12:56 PM,-9.4,-16.6,71,29.94,10.0,Calm,Calm,-,N/A,,Overcast,0,2013-01-08 21:56:00
1:16 PM,-9.4,-16.6,71,29.95,10.0,Calm,Calm,-,N/A,,Overcast,0,2013-01-08 22:16:00
1:36 PM,-9.4,-18.4,65,29.95,9.0,Calm,Calm,-,N/A,,Overcast,0,2013-01-08 22:36:00
1:56 PM,-9.4,-16.6,71,29.96,10.0,Calm,Calm,-,N/A,,Overcast,0,2013-01-08 22:56:00
2:16 PM,-9.4,-16.6,71,29.96,7.0,Calm,Calm,-,N/A,,Overcast,0,2013-01-08 23:16:00
2:36 PM,-9.4,-16.6,71,29.96,10.0,Calm,Calm,-,N/A,,Overcast,0,2013-01-08 23:36:00
2:56 PM,-9.4,-16.6,71,29.97,10.0,Calm,Calm,-,N/A,,Overcast,0,2013-01-08 23:56:00
3:16 PM,-7.6,-14.8,71,29.97,10.0,Calm,Calm,-,N/A,,Overcast,0,2013-01-09 00:16:00
3:36 PM,-7.6,-16.6,65,29.98,10.0,Calm,Calm,-,N/A,,Overcast,0,2013-01-09 00:36:00
3:56 PM,-7.6,-14.8,71,29.98,10.0,Calm,Calm,-,N/A,,Overcast,0,2013-01-09 00:56:00
4:16 PM,-5.8,-14.8,65,29.99,10.0,NNE,4.6,-,N/A,,Overcast,30,2013-01-09 01:16:00
4:36 PM,-5.8,-16.6,60,29.99,10.0,Calm,Calm,-,N/A,,Overcast,0,2013-01-09 01:36:00
4:56 PM,-5.8,-14.8,65,29.99,10.0,NNE,4.6,-,N/A,,Overcast,30,2013-01-09 01:56:00
5:16 PM,-5.8,-14.8,65,29.99,10.0,NNE,4.6,-,N/A,,Overcast,20,2013-01-09 02:16:00
5:36 PM,-4.0,-14.8,60,30.00,10.0,North,3.5,-,N/A,,Overcast,10,2013-01-09 02:36:00
5:56 PM,-4.0,-14.8,60,30.01,10.0,NNE,5.8,-,N/A,,Overcast,20,2013-01-09 02:56:00
6:16 PM,-2.2,-13.0,60,30.01,10.0,North,5.8,-,N/A,,Overcast,10,2013-01-09 03:16:00
6:36 PM,-2.2,-13.0,60,30.01,10.0,NNE,4.6,-,N/A,,Overcast,20,2013-01-09 03:36:00
6:56 PM,-2.2,-13.0,60,30.01,10.0,NNE,5.8,-,N/A,,Overcast,20,2013-01-09 03:56:00
7:16 PM,-2.2,-11.2,66,30.02,10.0,NNE,4.6,-,N/A,,Overcast,20,2013-01-09 04:16:00
7:36 PM,-2.2,-13.0,60,30.02,10.0,NNE,4.6,-,N/A,,Overcast,30,2013-01-09 04:36:00
7:56 PM,-2.2,-13.0,60,30.03,10.0,NNE,5.8,-,N/A,,Overcast,30,2013-01-09 04:56:00
8:16 PM,-2.2,-11.2,66,30.03,10.0,NNE,3.5,-,N/A,,Overcast,30,2013-01-09 05:16:00
9:16 PM,-0.4,-11.2,60,30.04,10.0,North,3.5,-,N/A,,Overcast,360,2013-01-09 06:16:00
9:36 PM,-0.4,-14.8,51,30.05,10.0,NNE,3.5,-,N/A,,Overcast,30,2013-01-09 06:36:00
9:56 PM,-0.4,-9999,N/A,30.06,10.0,North,3.5,-,N/A,,Overcast,10,2013-01-09 06:56:00
10:16 PM,-0.4,-13.0,55,30.07,10.0,Calm,Calm,-,N/A,,Mostly Cloudy,0,2013-01-09 07:16:00
10:36 PM,-0.4,-11.2,60,30.07,10.0,Calm,Calm,-,N/A,,Mostly Cloudy,0,2013-01-09 07:36:00
10:56 PM,-0.4,-11.2,60,30.08,10.0,Calm,Calm,-,N/A,,Overcast,0,2013-01-09 07:56:00
11:16 PM,-0.4,-11.2,60,30.08,10.0,NNE,3.5,-,N/A,,Overcast,30,2013-01-09 08:16:00
11:36 PM,-0.4,-13.0,55,30.09,10.0,NNE,3.5,-,N/A,,Overcast,20,2013-01-09 08:36:00
11:56 PM,-0.4,-11.2,60,30.09,10.0,NNE,3.5,-,N/A,,Overcast,20,2013-01-09 08:56:00